Location: Proctor
(47.8934°N, 114.3048°W)
Time: 21:07:30
(UTC+00:00)

Tiros 1 despin weight - Pass Details

Date: 28 June 2024
Orbit: 576 x 620 km, 48.2° (Epoch: 19 July)

Event Time Altitude Azimuth Distance (km) Brightness Sun altitude
Rises 23:42:54 0° 282° (WNW) 2,896 ? 36.5°
Reaches altitude 10° 23:45:50 10° 263° (W) 1,984 ? 36.1°
Maximum altitude 23:48:53 18° 221° (SW) 1,528 ? 35.5°
Drops below altitude 10° 23:51:55 10° 178° (S) 1,967 ? 35.0°
Sets 23:54:49 0° 160° (SSE) 2,860 ? 34.6°
